Regional Weather Roundup
Issued by NWS

Home | Current Version | Previous Version | Graphics & Text | Print | Product List | Glossary On
Versions: 1 2 3 4 5 6 7 8 9 10 11 12 13 14 15 16 17 18 19 20 21 22 23 24 25 26 27 28 29 30 31 32 33 34 35 36 37 38 39 40 41 42 43 44 45 46 47 48 49 50
000
ASUS44 KMEG 301410
RWRTN
TENNESSEE HOURLY STATE WEATHER ROUNDUP
NATIONAL WEATHER SERVICE MEMPHIS TN
900 AM CDT TUE JUN 30 2015

TNZ002-004-019-021-049-052-054-088>092-301500-
WEST TENNESSEE

CITY           SKY/WX    TMP DP  RH WIND       PRES   REMARKS
MEMPHIS INTL   PTSUNNY   79  72  79 SW9       29.97R
NWS MEMPHIS      N/A     77 N/A N/A MISG        N/A
JACKSON        SUNNY     77  68  73 SW6       29.96R
DYERSBURG        N/A    N/A N/A N/A MISG        N/A
PARIS          SUNNY     75  68  78 W7        29.94R
LEXINGTON      SUNNY     77  68  73 SW7       29.95R
$$

TNZ008-025-027-028-033-062-065-066-301500-
NORTH MIDDLE TENNESSEE

CITY           SKY/WX    TMP DP  RH WIND       PRES   REMARKS
NASHVILLE      CLOUDY    76  72  87 SW5       29.95R
CLARKSVILLE    SUNNY     74  70  87 W3        29.93R
SMYRNA         PTSUNNY   78  71  79 S5        29.96R
COOKEVILLE     PTSUNNY   75  72  88 SW7       29.97S
CROSSVILLE     CLOUDY    72  67  84 SW8       30.02R
$$

TNZ061-075-076-078-094-096-097-301500-
SOUTH MIDDLE TENNESSEE

CITY           SKY/WX    TMP DP  RH WIND       PRES   REMARKS
FAYETTEVILLE   SUNNY     75  66  73 SW8       29.99R
TULLAHOMA      MOSUNNY   77  66  69 S7        29.99R
WINCHESTER     MOSUNNY   81  68  65 W6        29.98S
MCMINNVILLE    SUNNY     77  72  83 SW7       29.98R
COLUMBIA       MOSUNNY   77  72  83 W7        29.95R
SHELBYVILLE    SUNNY     79  70  73 SW7       29.98R
$$

TNZ017-018-042-046-047-301500-
NORTHEAST TENNESSEE

CITY           SKY/WX    TMP DP  RH WIND       PRES   REMARKS
TRI CITIES     CLOUDY    69  63  81 VRB3      30.02S
ELIZABETHTON   MOSUNNY   66  61  82 CALM      30.03S
$$

TNZ012-013-036-069-073-074-301500-
CENTRAL EAST TENNESSEE

CITY           SKY/WX    TMP DP  RH WIND       PRES   REMARKS
KNOXVILLE      PTSUNNY   71  66  84 VRB3      29.99R
OAK RIDGE      CLOUDY    71  67  87 VRB3      30.01S
GATLINBURG     MOSUNNY   68  64  88 CALM      30.00S
MORRISTOWN     SUNNY     72  64  78 SW6       30.02S
$$

TNZ083-085-099-301500-
SOUTHEAST TENNESSEE

CITY           SKY/WX    TMP DP  RH WIND       PRES   REMARKS
CHATTANOOGA    PTSUNNY   72  70  93 SE5       29.99R
$$

SKY/WX REPORTED AS FAIR MEANS FEW OR NO CLOUDS BELOW
12 THOUSAND FEET.



USA.gov is the U.S. government's official web portal to all federal, state and local government web resources and services.